�������l�o���
Date,Time,MP-1(��Sv/h),MP-2(��Sv/h),MP-3(��Sv/h),MP-4(��Sv/h),MP-5(��Sv/h),MP-6(��Sv/h),MP-7(��Sv/h),MP-8(��Sv/h),����,����(m/s),���J
2017/11/05,00:00,0.889,1.426,0.900,1.696,1.157,0.493,0.902,0.839,�k��,3.3,��
2017/11/05,00:10,0.890,1.426,0.899,1.698,1.157,0.494,0.903,0.840,�k��,3.1,��
2017/11/05,00:20,0.892,1.426,0.901,1.699,1.157,0.494,0.903,0.841,�k��,3.6,��
2017/11/05,00:30,0.892,1.424,0.899,1.698,1.157,0.493,0.903,0.840,�k�k��,3.4,��
2017/11/05,00:40,0.892,1.425,0.899,1.698,1.158,0.493,0.903,0.840,�k��,3.2,��
2017/11/05,00:50,0.892,1.423,0.899,1.696,1.156,0.492,0.902,0.840,�k��,3.6,��
2017/11/05,01:00,0.891,1.426,0.900,1.695,1.158,0.493,0.901,0.839,�k��,3.2,��
2017/11/05,01:10,0.891,1.427,0.899,1.697,1.155,0.495,0.901,0.839,�k��,4.1,��
2017/11/05,01:20,0.890,1.425,0.900,1.698,1.157,0.493,0.901,0.840,�k��,3.6,��
2017/11/05,01:30,0.890,1.425,0.901,1.697,1.157,0.494,0.901,0.840,�k��,2.8,��
2017/11/05,01:40,0.890,1.427,0.899,1.701,1.158,0.494,0.902,0.839,�k��,2.2,��
2017/11/05,01:50,0.889,1.423,0.901,1.695,1.159,0.494,0.901,0.840,�k��,1.5,��
2017/11/05,02:00,0.892,1.425,0.900,1.697,1.157,0.494,0.903,0.839,�k�k��,1.1,��
2017/11/05,02:10,0.891,1.424,0.899,1.698,1.156,0.493,0.901,0.840,�k��,0.9,��
2017/11/05,02:20,0.890,1.423,0.900,1.697,1.158,0.494,0.899,0.839,���k��,1.2,��
2017/11/05,02:30,0.891,1.428,0.901,1.695,1.157,0.493,0.901,0.842,���쐼,1.1,��
2017/11/05,02:40,0.890,1.424,0.898,1.697,1.158,0.493,0.903,0.839,���쐼,1.2,��
2017/11/05,02:50,0.891,1.426,0.899,1.699,1.157,0.492,0.899,0.840,���쐼,1.2,��
2017/11/05,03:00,0.890,1.426,0.898,1.696,1.157,0.492,0.902,0.839,���k��,2.0,��
2017/11/05,03:10,0.889,1.426,0.900,1.698,1.158,0.494,0.900,0.841,���k��,2.6,��
2017/11/05,03:20,0.890,1.425,0.898,1.698,1.158,0.494,0.903,0.840,���k��,2.5,��
2017/11/05,03:30,0.890,1.426,0.899,1.696,1.159,0.493,0.902,0.840,��,1.5,��
2017/11/05,03:40,0.892,1.426,0.900,1.696,1.156,0.492,0.900,0.840,��,1.9,��
2017/11/05,03:50,0.889,1.424,0.899,1.696,1.153,0.493,0.902,0.840,�쐼,1.1,��
2017/11/05,04:00,0.891,1.427,0.897,1.696,1.158,0.493,0.900,0.841,�쐼,2.0,��
2017/11/05,04:10,0.890,1.425,0.897,1.699,1.156,0.493,0.901,0.839,�쐼,2.8,��
2017/11/05,04:20,0.892,1.423,0.899,1.695,1.158,0.493,0.901,0.839,���쐼,2.5,��
2017/11/05,04:30,0.890,1.425,0.899,1.695,1.157,0.494,0.902,0.840,��,2.5,��
2017/11/05,04:40,0.891,1.422,0.900,1.694,1.158,0.492,0.901,0.841,��,2.6,��
2017/11/05,04:50,0.890,1.424,0.899,1.696,1.158,0.494,0.899,0.840,���쐼,3.3,��
2017/11/05,05:00,0.890,1.425,0.898,1.695,1.157,0.493,0.902,0.838,��,2.0,��
2017/11/05,05:10,0.892,1.426,0.897,1.697,1.158,0.492,0.900,0.841,�쐼,2.0,��
2017/11/05,05:20,0.889,1.426,0.898,1.698,1.157,0.494,0.900,0.839,�쐼,1.7,��
2017/11/05,05:30,0.890,1.427,0.900,1.698,1.158,0.493,0.901,0.839,�쐼,2.3,��
2017/11/05,05:40,0.892,1.425,0.898,1.696,1.155,0.494,0.900,0.839,���쐼,1.7,��
2017/11/05,05:50,0.891,1.424,0.897,1.694,1.155,0.494,0.902,0.841,-,CALM,��
2017/11/05,06:00,0.890,1.426,0.898,1.695,1.158,0.494,0.901,0.840,�k��,1.2,��
2017/11/05,06:10,0.890,1.425,0.899,1.696,1.158,0.492,0.900,0.841,���k��,2.3,��
2017/11/05,06:20,0.888,1.426,0.894,1.699,1.157,0.494,0.901,0.841,��,3.3,��
2017/11/05,06:30,0.892,1.424,0.899,1.697,1.157,0.493,0.901,0.840,���쐼,4.2,��
2017/11/05,06:40,0.890,1.428,0.900,1.696,1.159,0.493,0.900,0.838,���k��,3.7,��
2017/11/05,06:50,0.892,1.427,0.898,1.698,1.159,0.492,0.902,0.839,�k��,5.2,��
2017/11/05,07:00,0.891,1.425,0.901,1.698,1.158,0.495,0.902,0.839,�k��,4.4,��
2017/11/05,07:10,0.891,1.427,0.900,1.699,1.157,0.494,0.902,0.840,���k��,5.7,��
2017/11/05,07:20,0.894,1.427,0.899,1.699,1.157,0.494,0.902,0.842,��,7.1,��
2017/11/05,07:30,0.893,1.426,0.902,1.698,1.158,0.493,0.904,0.840,��,7.9,��
2017/11/05,07:40,0.891,1.427,0.901,1.701,1.158,0.494,0.904,0.841,��,6.1,��
2017/11/05,07:50,0.893,1.430,0.902,1.703,1.155,0.493,0.903,0.841,��,6.0,��
2017/11/05,08:00,0.893,1.428,0.902,1.700,1.160,0.495,0.905,0.841,��,5.7,��
2017/11/05,08:10,0.895,1.428,0.904,1.700,1.157,0.494,0.903,0.840,���쐼,5.5,��
2017/11/05,08:20,0.894,1.429,0.902,1.701,1.160,0.495,0.904,0.841,��,5.0,��
2017/11/05,08:30,0.895,1.430,0.904,1.702,1.157,0.494,0.904,0.841,��,3.0,��
2017/11/05,08:40,0.895,1.430,0.904,1.702,1.161,0.496,0.903,0.843,��,3.0,��
2017/11/05,08:50,0.895,1.431,0.903,1.704,1.161,0.494,0.903,0.842,���쐼,2.6,��
2017/11/05,09:00,0.894,1.431,0.905,1.702,1.162,0.495,0.902,0.844,���쐼,1.7,��
2017/11/05,09:10,0.894,1.432,0.903,1.705,1.162,0.495,0.902,0.842,�쐼,2.0,��
2017/11/05,09:20,0.894,1.435,0.905,1.703,1.160,0.495,0.901,0.842,�쐼,2.0,��
2017/11/05,09:30,0.896,1.431,0.903,1.706,1.164,0.496,0.902,0.843,�쐼,1.5,��
2017/11/05,09:40,0.894,1.436,0.903,1.703,1.164,0.495,0.901,0.842,�쐼,2.5,��
2017/11/05,09:50,0.896,1.434,0.906,1.703,1.164,0.496,0.901,0.843,��,1.7,��
2017/11/05,10:00,0.896,1.432,0.906,1.702,1.163,0.495,0.902,0.843,���k��,1.5,�L
2017/11/05,10:10,0.894,1.433,0.903,1.703,1.164,0.496,0.900,0.843,�k��,2.9,�L
2017/11/05,10:20,0.896,1.434,0.906,1.702,1.163,0.495,0.900,0.842,�k��,3.9,��
2017/11/05,10:30,0.896,1.437,0.905,1.702,1.164,0.496,0.901,0.844,�k��,7.2,��
2017/11/05,10:40,0.898,1.437,0.904,1.705,1.164,0.497,0.903,0.844,���k��,7.8,��
2017/11/05,10:50,0.899,1.437,0.907,1.707,1.167,0.496,0.902,0.844,���k��,7.5,��
2017/11/05,11:00,0.897,1.435,0.907,1.706,1.165,0.496,0.902,0.842,�k��,7.5,��
2017/11/05,11:10,0.900,1.435,0.908,1.708,1.166,0.495,0.901,0.845,�k��,8.7,��
2017/11/05,11:20,0.898,1.437,0.907,1.706,1.162,0.494,0.902,0.845,�k��,7.9,��
2017/11/05,11:30,0.897,1.436,0.907,1.707,1.162,0.496,0.903,0.846,�k��,8.3,��
2017/11/05,11:40,0.893,1.436,0.906,1.707,1.163,0.496,0.903,0.844,�k��,7.6,��
2017/11/05,11:50,0.896,1.434,0.909,1.709,1.165,0.497,0.902,0.844,���k��,7.4,��
2017/11/05,12:00,0.899,1.437,0.909,1.706,1.167,0.496,0.904,0.844,���k��,6.8,��
2017/11/05,12:10,0.899,1.441,0.909,1.710,1.168,0.496,0.905,0.846,���k��,6.2,��
2017/11/05,12:20,0.897,1.436,0.911,1.709,1.168,0.496,0.905,0.844,���k��,8.7,��
2017/11/05,12:30,0.896,1.441,0.909,1.711,1.168,0.498,0.905,0.844,���k��,6.5,��
2017/11/05,12:40,0.897,1.438,0.909,1.712,1.166,0.497,0.903,0.844,���k��,7.2,��
2017/11/05,12:50,0.896,1.438,0.909,1.711,1.168,0.498,0.903,0.844,���k��,7.5,��
2017/11/05,13:00,0.899,1.441,0.907,1.713,1.168,0.498,0.905,0.842,���k��,7.5,��
2017/11/05,13:10,0.896,1.439,0.909,1.715,1.168,0.497,0.906,0.842,���k��,8.8,��
2017/11/05,13:20,0.899,1.440,0.909,1.715,1.170,0.498,0.906,0.842,�k�k��,4.8,��
2017/11/05,13:30,0.899,1.440,0.910,1.715,1.169,0.498,0.903,0.842,�k�k��,5.1,��
2017/11/05,13:40,0.898,1.437,0.910,1.714,1.170,0.496,0.906,0.842,�k��,3.8,��
2017/11/05,13:50,0.896,1.438,0.908,1.714,1.171,0.496,0.905,0.842,�k�k��,2.6,��
2017/11/05,14:00,0.897,1.440,0.909,1.713,1.170,0.496,0.904,0.842,�k�k��,3.6,��
2017/11/05,14:10,0.897,1.440,0.908,1.713,1.171,0.496,0.906,0.842,�k�k��,3.5,��
2017/11/05,14:20,0.896,1.438,0.908,1.716,1.169,0.497,0.905,0.839,���k��,3.2,��
2017/11/05,14:30,0.898,1.437,0.909,1.714,1.169,0.497,0.906,0.842,�k��,3.5,��
2017/11/05,14:40,0.899,1.439,0.910,1.712,1.168,0.498,0.906,0.840,�k��,1.7,��
2017/11/05,14:50,0.900,1.442,0.917,1.714,1.171,0.497,0.905,0.842,��,1.9,��
2017/11/05,15:00,0.900,1.444,0.912,1.714,1.171,0.499,0.907,0.842,�k��,1.1,��
2017/11/05,15:10,0.899,1.444,0.912,1.712,1.171,0.498,0.906,0.844,���k��,0.6,��
2017/11/05,15:20,0.902,1.443,0.911,1.711,1.174,0.499,0.906,0.844,�쓌,1.7,��
2017/11/05,15:30,0.902,1.442,0.913,1.714,1.174,0.500,0.905,0.845,��,1.7,��
2017/11/05,15:40,0.902,1.442,0.912,1.716,1.175,0.498,0.906,0.846,��,1.7,��
2017/11/05,15:50,0.899,1.444,0.912,1.713,1.172,0.498,0.908,0.844,���쓌,1.7,��
2017/11/05,16:00,0.901,1.443,0.911,1.712,1.173,0.498,0.907,0.845,��쓌,1.1,��
2017/11/05,16:10,0.900,1.446,0.908,1.713,1.174,0.498,0.906,0.844,��,0.9,��
2017/11/05,16:20,0.901,1.445,0.911,1.713,1.171,0.498,0.906,0.845,��,1.4,��
2017/11/05,16:30,0.899,1.445,0.908,1.714,1.174,0.499,0.909,0.843,��,0.9,��
2017/11/05,16:40,0.898,1.442,0.909,1.715,1.172,0.498,0.905,0.844,��쐼,1.2,��
2017/11/05,16:50,0.899,1.441,0.910,1.713,1.173,0.497,0.905,0.843,��쐼,2.6,��
2017/11/05,17:00,0.898,1.442,0.908,1.711,1.173,0.497,0.904,0.843,��쐼,2.3,��
2017/11/05,17:10,0.899,1.441,0.909,1.712,1.171,0.499,0.906,0.843,��,3.0,��
2017/11/05,17:20,0.898,1.442,0.908,1.710,1.172,0.497,0.907,0.843,��쐼,4.4,��
2017/11/05,17:30,0.900,1.441,0.909,1.711,1.171,0.498,0.906,0.843,��쐼,3.8,��
2017/11/05,17:40,0.898,1.440,0.910,1.711,1.172,0.498,0.907,0.843,�쐼,2.8,��
2017/11/05,17:50,0.899,1.445,0.909,1.711,1.172,0.498,0.906,0.844,��,4.9,��
2017/11/05,18:00,0.898,1.442,0.911,1.710,1.172,0.498,0.905,0.843,��,4.2,��
2017/11/05,18:10,0.897,1.442,0.910,1.712,1.170,0.498,0.905,0.845,��,4.6,��
2017/11/05,18:20,0.900,1.442,0.909,1.711,1.169,0.498,0.905,0.843,��,5.0,��
2017/11/05,18:30,0.898,1.444,0.907,1.714,1.172,0.496,0.906,0.843,��,6.3,��
2017/11/05,18:40,0.898,1.443,0.909,1.711,1.172,0.497,0.906,0.842,��,8.2,��
2017/11/05,18:50,0.897,1.442,0.910,1.715,1.174,0.496,0.906,0.842,��,7.8,��
2017/11/05,19:00,0.898,1.445,0.909,1.712,1.172,0.496,0.904,0.843,��,6.1,��
2017/11/05,19:10,0.897,1.442,0.908,1.714,1.173,0.495,0.906,0.841,��,5.2,��
2017/11/05,19:20,0.899,1.443,0.908,1.714,1.171,0.497,0.905,0.843,��,6.8,��
2017/11/05,19:30,0.901,1.443,0.908,1.713,1.172,0.495,0.906,0.844,��,7.2,��
2017/11/05,19:40,0.899,1.443,0.910,1.713,1.173,0.495,0.907,0.843,��,8.0,��
2017/11/05,19:50,0.899,1.443,0.909,1.712,1.170,0.495,0.907,0.843,��,7.3,��
2017/11/05,20:00,0.898,1.441,0.909,1.711,1.172,0.497,0.906,0.845,��,7.3,��
2017/11/05,20:10,0.899,1.442,0.911,1.716,1.171,0.495,0.907,0.843,��,7.3,��
2017/11/05,20:20,0.898,1.442,0.909,1.714,1.170,0.496,0.905,0.843,��,6.4,��
2017/11/05,20:30,0.897,1.442,0.910,1.712,1.171,0.497,0.907,0.845,��,6.5,��
2017/11/05,20:40,0.899,1.443,0.909,1.710,1.171,0.497,0.906,0.844,��,6.1,��
2017/11/05,20:50,0.899,1.441,0.909,1.714,1.170,0.496,0.905,0.844,��,6.4,��
2017/11/05,21:00,0.897,1.441,0.908,1.713,1.170,0.497,0.906,0.842,��,5.7,��
2017/11/05,21:10,0.897,1.440,0.911,1.714,1.169,0.496,0.906,0.842,��,4.8,��
2017/11/05,21:20,0.899,1.441,0.911,1.710,1.172,0.495,0.906,0.844,��,5.5,��
2017/11/05,21:30,0.897,1.441,0.911,1.712,1.173,0.496,0.905,0.843,��,5.9,��
2017/11/05,21:40,0.898,1.443,0.911,1.709,1.170,0.497,0.906,0.843,��,5.8,��
2017/11/05,21:50,0.897,1.442,0.910,1.714,1.171,0.496,0.906,0.844,��,6.6,��
2017/11/05,22:00,0.898,1.442,0.909,1.715,1.170,0.496,0.905,0.844,��,5.5,��
2017/11/05,22:10,0.897,1.442,0.910,1.715,1.172,0.496,0.905,0.845,��,6.5,��
2017/11/05,22:20,0.899,1.442,0.909,1.713,1.172,0.497,0.906,0.843,��,5.7,��
2017/11/05,22:30,0.898,1.445,0.909,1.711,1.172,0.497,0.904,0.844,���쐼,5.4,��
2017/11/05,22:40,0.898,1.442,0.909,1.712,1.172,0.494,0.906,0.841,�쐼,5.6,��
2017/11/05,22:50,0.898,1.441,0.911,1.711,1.171,0.496,0.906,0.842,���쐼,5.4,��
2017/11/05,23:00,0.899,1.443,0.908,1.712,1.173,0.496,0.906,0.843,��,3.5,��
2017/11/05,23:10,0.899,1.444,0.910,1.713,1.172,0.497,0.906,0.842,��,2.9,��
2017/11/05,23:20,0.898,1.444,0.909,1.713,1.173,0.494,0.907,0.842,���k��,3.2,��
2017/11/05,23:30,0.898,1.441,0.908,1.713,1.172,0.496,0.906,0.845,���k��,3.6,��
2017/11/05,23:40,0.899,1.445,0.908,1.712,1.170,0.496,0.905,0.843,��,3.6,��
2017/11/05,23:50,0.898,1.442,0.908,1.713,1.172,0.497,0.903,0.841,���k��,2.8,��
